Time,TemperatureF,DewpointF,PressureIn,WindDirection,WindDirectionDegrees,WindSpeedMPH,WindSpeedGustMPH,Humidity,HourlyPrecipIn,Conditions,Clouds,dailyrainin,SoftwareType,DateUTC
2013-04-29 00:03:00,46.0,45.0,30.02,SE,135,4.0,10.0,97,0.02,,,0.42,,2013-04-29 04:03:00,
2013-04-29 00:13:00,46.0,45.0,30.02,SE,135,4.0,10.0,97,0.02,,,0.42,,2013-04-29 04:13:00,
2013-04-29 00:23:00,46.0,45.0,30.02,SE,135,4.0,10.0,97,0.02,,,0.42,,2013-04-29 04:23:00,
2013-04-29 00:33:00,46.0,45.0,30.02,SE,135,4.0,10.0,97,0.02,,,0.42,,2013-04-29 04:33:00,
2013-04-29 00:43:00,46.0,45.0,30.02,SE,135,4.0,10.0,97,0.02,,,0.42,,2013-04-29 04:43:00,
2013-04-29 00:52:00,45.0,44.0,30.02,ESE,120,5.0,9.0,98,0.00,,,0.42,,2013-04-29 04:52:00,
2013-04-29 01:02:00,45.0,45.0,30.02,SE,134,5.0,6.0,99,0.00,,,0.42,,2013-04-29 05:02:00,
2013-04-29 01:12:00,45.0,45.0,30.02,SE,134,5.0,6.0,99,0.00,,,0.42,,2013-04-29 05:12:00,
2013-04-29 01:22:00,45.0,45.0,30.02,East,87,3.0,10.0,99,0.00,,,0.42,,2013-04-29 05:22:00,
2013-04-29 01:32:00,46.0,46.0,30.01,SSE,148,5.0,10.0,99,0.00,,,0.42,,2013-04-29 05:32:00,
2013-04-29 01:42:00,46.0,46.0,30.01,SSE,148,5.0,10.0,99,0.00,,,0.42,,2013-04-29 05:42:00,
2013-04-29 01:52:00,46.0,46.0,30.01,SSE,148,5.0,10.0,99,0.00,,,0.42,,2013-04-29 05:52:00,
2013-04-29 02:02:00,46.0,45.0,30.01,ESE,123,5.0,10.0,98,0.00,,,0.42,,2013-04-29 06:02:00,
2013-04-29 02:12:00,46.0,45.0,30.01,ESE,123,5.0,10.0,98,0.00,,,0.42,,2013-04-29 06:12:00,
2013-04-29 02:22:00,45.0,44.0,30.01,East,95,4.0,10.0,98,0.00,,,0.42,,2013-04-29 06:22:00,
2013-04-29 02:32:00,46.0,45.0,30.01,SE,138,6.0,9.0,98,0.00,,,0.42,,2013-04-29 06:32:00,
2013-04-29 02:42:00,46.0,45.0,30.01,SE,138,6.0,9.0,98,0.00,,,0.42,,2013-04-29 06:42:00,
2013-04-29 02:52:00,46.0,45.0,30.00,SE,135,1.0,7.0,98,0.00,,,0.42,,2013-04-29 06:52:00,
2013-04-29 03:02:00,46.0,45.0,30.00,SE,128,4.0,7.0,98,0.00,,,0.42,,2013-04-29 07:02:00,
2013-04-29 03:11:00,46.0,45.0,30.00,SE,128,4.0,7.0,98,0.00,,,0.42,,2013-04-29 07:11:00,
2013-04-29 03:22:00,46.0,45.0,29.99,SE,130,3.0,7.0,98,0.00,,,0.42,,2013-04-29 07:22:00,
2013-04-29 03:32:00,45.0,44.0,29.99,SE,135,6.0,7.0,98,0.00,,,0.42,,2013-04-29 07:32:00,
2013-04-29 03:42:00,45.0,44.0,29.99,SE,135,6.0,7.0,98,0.00,,,0.42,,2013-04-29 07:42:00,
2013-04-29 03:52:00,45.0,44.0,29.99,SE,145,6.0,9.0,98,0.00,,,0.42,,2013-04-29 07:52:00,
2013-04-29 04:03:00,45.0,44.0,29.99,SE,145,6.0,9.0,98,0.00,,,0.42,,2013-04-29 08:03:00,
2013-04-29 04:11:00,45.0,44.0,29.99,SE,145,6.0,9.0,98,0.00,,,0.42,,2013-04-29 08:11:00,
2013-04-29 04:22:00,45.0,44.0,29.99,SE,140,5.0,7.0,98,0.00,,,0.42,,2013-04-29 08:22:00,
2013-04-29 04:32:00,45.0,44.0,29.99,SE,128,0.0,4.0,98,0.00,,,0.42,,2013-04-29 08:32:00,
2013-04-29 04:42:00,45.0,44.0,29.99,SE,128,0.0,4.0,98,0.00,,,0.42,,2013-04-29 08:42:00,
2013-04-29 04:51:00,45.0,44.0,29.99,SE,128,0.0,0.0,98,0.00,,,0.42,,2013-04-29 08:51:00,
2013-04-29 05:01:00,44.0,44.0,29.99,East,97,0.0,4.0,99,0.00,,,0.42,,2013-04-29 09:01:00,
2013-04-29 05:12:00,44.0,44.0,29.99,East,97,0.0,4.0,99,0.00,,,0.42,,2013-04-29 09:12:00,
2013-04-29 05:21:00,44.0,44.0,29.98,SE,132,2.0,6.0,99,0.00,,,0.42,,2013-04-29 09:21:00,
2013-04-29 05:33:00,44.0,44.0,29.98,SE,128,0.0,5.0,99,0.00,,,0.42,,2013-04-29 09:33:00,
2013-04-29 05:42:00,44.0,44.0,29.98,SE,128,0.0,5.0,99,0.00,,,0.42,,2013-04-29 09:42:00,
2013-04-29 05:53:00,44.0,44.0,29.98,ESE,121,0.0,5.0,99,0.00,,,0.42,,2013-04-29 09:53:00,
2013-04-29 06:02:00,44.0,44.0,29.98,ESE,121,0.0,3.0,99,0.00,,,0.42,,2013-04-29 10:02:00,
2013-04-29 06:12:00,44.0,44.0,29.98,ESE,121,0.0,3.0,99,0.00,,,0.42,,2013-04-29 10:12:00,
2013-04-29 06:23:00,44.0,44.0,29.98,ESE,121,0.0,3.0,99,0.00,,,0.42,,2013-04-29 10:23:00,
2013-04-29 06:32:00,44.0,44.0,29.99,SE,125,1.0,5.0,100,0.00,,,0.42,,2013-04-29 10:32:00,
2013-04-29 06:42:00,44.0,44.0,29.99,SE,125,1.0,5.0,100,0.00,,,0.42,,2013-04-29 10:42:00,
2013-04-29 06:52:00,44.0,44.0,30.00,SE,125,0.0,2.0,100,0.00,,,0.42,,2013-04-29 10:52:00,
2013-04-29 07:03:00,45.0,45.0,30.00,ESE,121,1.0,5.0,100,0.00,,,0.42,,2013-04-29 11:03:00,
2013-04-29 07:12:00,45.0,45.0,30.00,ESE,121,1.0,5.0,100,0.00,,,0.42,,2013-04-29 11:12:00,
2013-04-29 07:22:00,45.0,45.0,30.00,ESE,121,1.0,5.0,100,0.00,,,0.42,,2013-04-29 11:22:00,
2013-04-29 07:32:00,45.0,45.0,30.02,East,86,0.0,4.0,100,0.00,,,0.42,,2013-04-29 11:32:00,
2013-04-29 07:42:00,45.0,45.0,30.02,East,86,0.0,4.0,100,0.00,,,0.42,,2013-04-29 11:42:00,
2013-04-29 07:52:00,45.0,45.0,30.02,East,86,0.0,3.0,100,0.00,,,0.42,,2013-04-29 11:52:00,
2013-04-29 08:01:00,45.0,45.0,30.02,ESE,119,2.0,4.0,100,0.00,,,0.42,,2013-04-29 12:01:00,
2013-04-29 08:12:00,45.0,45.0,30.02,ESE,119,2.0,4.0,100,0.00,,,0.42,,2013-04-29 12:12:00,
2013-04-29 08:22:00,45.0,45.0,30.02,ESE,119,2.0,4.0,100,0.00,,,0.42,,2013-04-29 12:22:00,
2013-04-29 08:32:00,46.0,46.0,30.02,ENE,74,1.0,3.0,100,0.00,,,0.42,,2013-04-29 12:32:00,
2013-04-29 08:42:00,46.0,46.0,30.02,ENE,74,1.0,3.0,100,0.00,,,0.42,,2013-04-29 12:42:00,
2013-04-29 08:52:00,46.0,46.0,30.02,ENE,74,1.0,3.0,100,0.00,,,0.42,,2013-04-29 12:52:00,
2013-04-29 09:01:00,46.0,46.0,30.03,East,80,0.0,3.0,100,0.00,,,0.42,,2013-04-29 13:01:00,
2013-04-29 09:11:00,46.0,46.0,30.03,East,80,0.0,3.0,100,0.00,,,0.42,,2013-04-29 13:11:00,
2013-04-29 09:21:00,46.0,46.0,30.03,East,80,0.0,3.0,100,0.00,,,0.42,,2013-04-29 13:21:00,
2013-04-29 09:32:00,46.0,46.0,30.03,East,88,3.0,5.0,100,0.00,,,0.42,,2013-04-29 13:32:00,
2013-04-29 09:42:00,46.0,46.0,30.03,East,88,3.0,5.0,100,0.00,,,0.42,,2013-04-29 13:42:00,
2013-04-29 09:52:00,47.0,47.0,30.03,East,92,2.0,6.0,100,0.00,,,0.42,,2013-04-29 13:52:00,
2013-04-29 10:02:00,48.0,48.0,30.02,ESE,123,3.0,6.0,100,0.00,,,0.42,,2013-04-29 14:02:00,
2013-04-29 10:12:00,48.0,48.0,30.02,ESE,123,3.0,6.0,100,0.00,,,0.42,,2013-04-29 14:12:00,
2013-04-29 10:21:00,49.0,49.0,30.02,East,101,0.0,6.0,100,0.01,,,0.43,,2013-04-29 14:21:00,
2013-04-29 10:32:00,50.0,50.0,30.02,ESE,116,0.0,7.0,100,0.01,,,0.43,,2013-04-29 14:32:00,
2013-04-29 10:42:00,50.0,50.0,30.02,ESE,116,0.0,7.0,100,0.01,,,0.43,,2013-04-29 14:42:00,
2013-04-29 10:52:00,51.0,51.0,30.02,ENE,78,6.0,8.0,99,0.01,,,0.42,,2013-04-29 14:52:00,
2013-04-29 11:01:00,52.0,51.0,30.02,SE,133,1.0,10.0,96,0.01,,,0.41,,2013-04-29 15:01:00,
2013-04-29 11:12:00,52.0,51.0,30.02,SE,133,1.0,10.0,96,0.01,,,0.41,,2013-04-29 15:12:00,
2013-04-29 11:22:00,52.0,51.0,30.02,SE,133,1.0,10.0,96,0.01,,,0.41,,2013-04-29 15:22:00,
2013-04-29 11:33:00,53.0,51.0,30.02,SE,130,4.0,9.0,92,0.00,,,0.39,,2013-04-29 15:33:00,
2013-04-29 11:42:00,53.0,51.0,30.02,SE,130,4.0,9.0,92,0.00,,,0.39,,2013-04-29 15:42:00,
2013-04-29 11:53:00,53.0,51.0,30.02,SE,130,4.0,9.0,92,0.00,,,0.39,,2013-04-29 15:53:00,
2013-04-29 12:03:00,54.0,51.0,30.02,ENE,68,3.0,10.0,91,0.00,,,0.33,,2013-04-29 16:03:00,
2013-04-29 12:13:00,54.0,51.0,30.02,ENE,68,3.0,10.0,91,0.00,,,0.33,,2013-04-29 16:13:00,
2013-04-29 12:23:00,54.0,51.0,30.02,ENE,68,3.0,11.0,91,0.00,,,0.31,,2013-04-29 16:23:00,
2013-04-29 12:33:00,54.0,51.0,30.02,ESE,113,0.0,6.0,91,0.00,,,0.27,,2013-04-29 16:33:00,
2013-04-29 12:42:00,54.0,51.0,30.02,ESE,113,0.0,6.0,91,0.00,,,0.27,,2013-04-29 16:42:00,
2013-04-29 12:52:00,54.0,51.0,30.02,ESE,113,0.0,5.0,91,0.00,,,0.25,,2013-04-29 16:52:00,
2013-04-29 13:02:00,54.0,52.0,30.02,SE,131,3.0,5.0,94,0.00,,,0.21,,2013-04-29 17:02:00,
2013-04-29 13:12:00,54.0,52.0,30.02,SE,131,3.0,5.0,94,0.00,,,0.21,,2013-04-29 17:12:00,
2013-04-29 13:22:00,53.0,52.0,30.02,SE,124,3.0,7.0,95,0.00,,,0.20,,2013-04-29 17:22:00,
2013-04-29 13:32:00,54.0,52.0,30.01,SE,135,5.0,9.0,94,0.00,,,0.16,,2013-04-29 17:32:00,
2013-04-29 13:42:00,54.0,52.0,30.01,SE,135,5.0,9.0,94,0.00,,,0.16,,2013-04-29 17:42:00,
2013-04-29 13:52:00,54.0,52.0,30.01,SE,135,5.0,9.0,94,0.00,,,0.16,,2013-04-29 17:52:00,
2013-04-29 14:01:00,54.0,52.0,30.01,SE,135,5.0,9.0,94,0.00,,,0.16,,2013-04-29 18:01:00,
2013-04-29 14:13:00,54.0,52.0,30.01,SE,135,5.0,9.0,94,0.00,,,0.16,,2013-04-29 18:13:00,
2013-04-29 14:32:00,54.0,52.0,30.01,East,87,4.0,11.0,93,0.00,,,0.11,,2013-04-29 18:32:00,
2013-04-29 14:42:00,54.0,52.0,30.01,East,87,4.0,11.0,93,0.00,,,0.11,,2013-04-29 18:42:00,
2013-04-29 14:52:00,54.0,52.0,30.01,SE,134,4.0,6.0,93,0.00,,,0.08,,2013-04-29 18:52:00,
2013-04-29 15:01:00,53.0,51.0,30.01,East,82,2.0,7.0,94,0.00,,,0.05,,2013-04-29 19:01:00,
2013-04-29 15:12:00,53.0,51.0,30.01,East,82,2.0,7.0,94,0.00,,,0.05,,2013-04-29 19:12:00,
2013-04-29 15:22:00,54.0,53.0,30.01,East,81,1.0,6.0,95,0.00,,,0.04,,2013-04-29 19:22:00,
2013-04-29 15:32:00,54.0,52.0,30.01,SE,129,2.0,5.0,94,0.00,,,0.03,,2013-04-29 19:32:00,
2013-04-29 15:42:00,54.0,52.0,30.01,SE,129,2.0,5.0,94,0.00,,,0.03,,2013-04-29 19:42:00,
2013-04-29 15:52:00,54.0,52.0,30.01,East,80,5.0,5.0,93,0.00,,,0.03,,2013-04-29 19:52:00,
2013-04-29 16:02:00,54.0,52.0,30.01,ESE,105,4.0,7.0,93,0.00,,,0.03,,2013-04-29 20:02:00,
2013-04-29 16:12:00,54.0,52.0,30.01,ESE,105,4.0,7.0,93,0.00,,,0.03,,2013-04-29 20:12:00,
2013-04-29 16:22:00,54.0,52.0,30.01,ENE,63,1.0,8.0,94,0.00,,,0.03,,2013-04-29 20:22:00,
2013-04-29 16:32:00,54.0,52.0,30.01,ENE,71,2.0,5.0,94,0.00,,,0.03,,2013-04-29 20:32:00,
2013-04-29 16:42:00,54.0,52.0,30.01,ENE,71,2.0,5.0,94,0.00,,,0.03,,2013-04-29 20:42:00,
2013-04-29 16:52:00,54.0,52.0,30.01,ENE,71,2.0,5.0,94,0.00,,,0.03,,2013-04-29 20:52:00,
2013-04-29 17:02:00,53.0,52.0,30.00,East,87,2.0,6.0,96,0.00,,,0.03,,2013-04-29 21:02:00,
2013-04-29 17:11:00,53.0,52.0,30.00,East,87,2.0,6.0,96,0.00,,,0.03,,2013-04-29 21:11:00,
2013-04-29 17:22:00,54.0,53.0,30.00,SE,142,3.0,6.0,97,0.00,,,0.03,,2013-04-29 21:22:00,
2013-04-29 17:33:00,54.0,53.0,29.99,East,88,4.0,7.0,96,0.00,,,0.03,,2013-04-29 21:33:00,
2013-04-29 17:43:00,54.0,53.0,29.99,East,88,4.0,7.0,96,0.00,,,0.03,,2013-04-29 21:43:00,
2013-04-29 17:53:00,54.0,53.0,30.00,ESE,106,7.0,10.0,95,0.00,,,0.03,,2013-04-29 21:53:00,
2013-04-29 18:02:00,54.0,53.0,30.00,ESE,106,7.0,10.0,95,0.00,,,0.03,,2013-04-29 22:02:00,
2013-04-29 18:13:00,54.0,53.0,30.00,ESE,106,7.0,10.0,95,0.00,,,0.03,,2013-04-29 22:13:00,
2013-04-29 18:23:00,54.0,53.0,30.00,ESE,106,7.0,10.0,95,0.00,,,0.03,,2013-04-29 22:23:00,
2013-04-29 18:32:00,54.0,52.0,30.01,East,87,3.0,6.0,94,0.00,,,0.03,,2013-04-29 22:32:00,
2013-04-29 18:42:00,54.0,52.0,30.01,East,87,3.0,6.0,94,0.00,,,0.03,,2013-04-29 22:42:00,
2013-04-29 18:53:00,54.0,52.0,30.00,East,82,2.0,7.0,94,0.00,,,0.03,,2013-04-29 22:53:00,
2013-04-29 19:02:00,54.0,52.0,30.00,ESE,114,3.0,9.0,94,0.00,,,0.03,,2013-04-29 23:02:00,
2013-04-29 19:12:00,54.0,52.0,30.00,ESE,114,3.0,9.0,94,0.00,,,0.03,,2013-04-29 23:12:00,
2013-04-29 19:22:00,54.0,52.0,30.01,ESE,117,4.0,11.0,93,0.00,,,0.03,,2013-04-29 23:22:00,
2013-04-29 19:32:00,54.0,52.0,30.01,SE,142,10.0,11.0,94,0.00,,,0.03,,2013-04-29 23:32:00,
2013-04-29 19:42:00,54.0,52.0,30.01,SE,142,10.0,11.0,94,0.00,,,0.03,,2013-04-29 23:42:00,
2013-04-29 19:52:00,54.0,52.0,30.01,SE,142,10.0,11.0,94,0.00,,,0.03,,2013-04-29 23:52:00,
2013-04-29 20:01:00,53.0,52.0,30.02,ESE,109,4.0,9.0,96,0.01,,,0.04,,2013-04-30 00:01:00,
2013-04-29 20:11:00,53.0,52.0,30.02,ESE,109,4.0,9.0,96,0.01,,,0.04,,2013-04-30 00:11:00,
2013-04-29 20:22:00,52.0,51.0,30.03,East,88,5.0,6.0,97,0.02,,,0.05,,2013-04-30 00:22:00,
2013-04-29 20:32:00,52.0,51.0,30.03,East,88,6.0,9.0,98,0.04,,,0.07,,2013-04-30 00:32:00,
2013-04-29 20:42:00,52.0,51.0,30.03,East,88,6.0,9.0,98,0.04,,,0.07,,2013-04-30 00:42:00,
2013-04-29 20:51:00,52.0,51.0,30.03,East,88,6.0,9.0,98,0.04,,,0.07,,2013-04-30 00:51:00,
2013-04-29 21:02:00,52.0,51.0,30.03,East,88,6.0,9.0,98,0.04,,,0.07,,2013-04-30 01:02:00,
2013-04-29 21:22:00,51.0,51.0,30.06,SE,130,2.0,6.0,99,0.06,,,0.11,,2013-04-30 01:22:00,
2013-04-29 21:32:00,51.0,51.0,30.05,East,94,4.0,10.0,100,0.02,,,0.11,,2013-04-30 01:32:00,
2013-04-29 21:42:00,51.0,51.0,30.05,East,94,4.0,10.0,100,0.02,,,0.11,,2013-04-30 01:42:00,
2013-04-29 21:51:00,51.0,51.0,30.05,East,94,4.0,10.0,100,0.02,,,0.11,,2013-04-30 01:51:00,
2013-04-29 22:01:00,51.0,51.0,30.06,ENE,77,4.0,8.0,100,0.00,,,0.11,,2013-04-30 02:01:00,
2013-04-29 22:11:00,51.0,51.0,30.06,ENE,77,4.0,8.0,100,0.00,,,0.11,,2013-04-30 02:11:00,
2013-04-29 22:21:00,51.0,51.0,30.08,East,86,2.0,5.0,100,0.00,,,0.11,,2013-04-30 02:21:00,
2013-04-29 22:32:00,51.0,51.0,30.06,East,83,3.0,7.0,100,0.00,,,0.11,,2013-04-30 02:32:00,
2013-04-29 22:41:00,51.0,51.0,30.06,East,83,3.0,7.0,100,0.00,,,0.11,,2013-04-30 02:41:00,
2013-04-29 22:51:00,51.0,51.0,30.06,East,83,3.0,7.0,100,0.00,,,0.11,,2013-04-30 02:51:00,
2013-04-29 23:01:00,51.0,51.0,30.06,East,83,3.0,7.0,100,0.00,,,0.11,,2013-04-30 03:01:00,
2013-04-29 23:21:00,51.0,51.0,30.06,SE,137,7.0,9.0,100,0.00,,,0.11,,2013-04-30 03:21:00,
2013-04-29 23:33:00,51.0,51.0,30.06,ENE,72,9.0,12.0,100,0.00,,,0.11,,2013-04-30 03:33:00,
2013-04-29 23:43:00,51.0,51.0,30.06,ENE,72,9.0,12.0,100,0.00,,,0.11,,2013-04-30 03:43:00,
2013-04-29 23:52:00,51.0,51.0,30.06,ENE,72,9.0,12.0,100,0.00,,,0.11,,2013-04-30 03:52:00,